TimeEDT,TemperatureF,Dew PointF,Humidity,Sea Level PressureIn,VisibilityMPH,Wind Direction,Wind SpeedMPH,Gust SpeedMPH,PrecipitationIn,Events,Conditions,WindDirDegrees,DateUTC
12:53 AM,75.9,64.0,67,30.07,10.0,SSE,5.8,16.1,N/A,,Mostly Cloudy,150,2013-05-17 04:53:00
1:53 AM,75.0,63.0,66,30.06,10.0,SSE,6.9,-,N/A,,Mostly Cloudy,150,2013-05-17 05:53:00
2:53 AM,73.9,63.0,68,30.05,10.0,SSE,5.8,-,N/A,,Mostly Cloudy,150,2013-05-17 06:53:00
3:53 AM,73.0,64.0,73,30.05,10.0,SE,5.8,-,N/A,,Mostly Cloudy,130,2013-05-17 07:53:00
4:53 AM,72.0,63.0,73,30.05,10.0,SSE,4.6,-,N/A,,Mostly Cloudy,150,2013-05-17 08:53:00
5:53 AM,72.0,63.0,73,30.07,10.0,SE,3.5,-,N/A,,Mostly Cloudy,140,2013-05-17 09:53:00
6:53 AM,72.0,64.0,76,30.08,10.0,SE,3.5,-,N/A,,Mostly Cloudy,140,2013-05-17 10:53:00
7:53 AM,73.9,64.0,71,30.09,10.0,SE,4.6,-,N/A,,Partly Cloudy,130,2013-05-17 11:53:00
8:53 AM,75.9,64.0,67,30.09,10.0,South,6.9,-,N/A,,Partly Cloudy,180,2013-05-17 12:53:00
9:53 AM,79.0,64.0,60,30.11,10.0,SSW,6.9,-,N/A,,Clear,200,2013-05-17 13:53:00
10:53 AM,80.1,66.0,62,30.12,10.0,South,10.4,-,N/A,,Scattered Clouds,190,2013-05-17 14:53:00
11:53 AM,81.0,64.9,58,30.11,10.0,Variable,3.5,-,N/A,,Scattered Clouds,0,2013-05-17 15:53:00
12:53 PM,82.0,66.0,58,30.10,10.0,SW,5.8,-,N/A,,Scattered Clouds,230,2013-05-17 16:53:00
1:53 PM,84.0,64.0,51,30.09,10.0,SW,8.1,-,N/A,,Scattered Clouds,230,2013-05-17 17:53:00
2:53 PM,86.0,62.6,45,30.08,10.0,WSW,10.4,-,N/A,,Scattered Clouds,250,2013-05-17 18:53:00
3:53 PM,86.0,63.0,46,30.06,10.0,WSW,11.5,-,N/A,,Partly Cloudy,250,2013-05-17 19:53:00
4:53 PM,86.0,63.0,46,30.05,10.0,West,11.5,-,N/A,,Partly Cloudy,260,2013-05-17 20:53:00
5:53 PM,84.9,64.0,49,30.04,10.0,West,12.7,-,N/A,,Partly Cloudy,270,2013-05-17 21:53:00
6:53 PM,82.9,63.0,51,30.05,10.0,WNW,12.7,-,N/A,,Partly Cloudy,300,2013-05-17 22:53:00
7:53 PM,80.1,63.0,56,30.06,10.0,NW,6.9,-,N/A,,Partly Cloudy,310,2013-05-17 23:53:00
8:53 PM,77.0,64.9,66,30.07,10.0,NW,5.8,-,N/A,,Partly Cloudy,320,2013-05-18 00:53:00
9:53 PM,77.0,66.0,69,30.09,10.0,North,4.6,-,N/A,,Partly Cloudy,10,2013-05-18 01:53:00
10:53 PM,78.1,64.9,64,30.11,10.0,NNE,4.6,-,N/A,,Mostly Cloudy,20,2013-05-18 02:53:00
11:53 PM,78.1,64.9,64,30.11,10.0,NNE,4.6,-,N/A,,Mostly Cloudy,30,2013-05-18 03:53:00